When you browse on this site, cookies collect data to enhance your experience and personalize the content and advertising you see.
Visit our Privacy Policy to learn more. By continuing to use the site, you agree to this use of cookies and data.
  • în România
  • Lista ţărilor
  • Pe 7 zile
  • Temperatura apei
  • Hartă satelitară
  • Meteo pe hartă
  • Widget-uri
  • user-avatar
    Intrare

    Meteo pe oră la Perevalnyy

    Astăzi, 26 Aprilie, Vineri

    Timp Temperatura Precipitaţii Vânt Presiune Umiditate
    00:00 +12°C° 0 mm 1 m/s 733 mmHg 66%
    01:00 +11°C° 0 mm 1 m/s 732 mmHg 67%
    02:00 +11°C° 0 mm 1 m/s 732 mmHg 68%
    03:00 +10°C° 0 mm 1 m/s 732 mmHg 70%
    04:00 +9°C° 0 mm 2 m/s 732 mmHg 71%
    05:00 +9°C° 0 mm 2 m/s 732 mmHg 72%
    06:00 +9°C° 0 mm 2 m/s 732 mmHg 73%
    07:00 +13°C° 0 mm 1 m/s 732 mmHg 66%
    08:00 +15°C° 0 mm 1 m/s 732 mmHg 60%
    09:00 +18°C° 0 mm 1 m/s 732 mmHg 53%
    10:00 +19°C° 0 mm 1 m/s 731 mmHg 49%
    11:00 +19°C° 0 mm 2 m/s 731 mmHg 45%
    12:00 +20°C° 0 mm 2 m/s 731 mmHg 42%
    13:00 +21°C° 0 mm 2 m/s 731 mmHg 41%
    14:00 +21°C° 0 mm 2 m/s 730 mmHg 40%
    15:00 +21°C° 0 mm 3 m/s 730 mmHg 39%
    16:00 +21°C° 0 mm 2 m/s 730 mmHg 44%
    17:00 +20°C° 0 mm 2 m/s 730 mmHg 48%
    18:00 +19°C° 0 mm 2 m/s 730 mmHg 53%
    19:00 +18°C° 0 mm 2 m/s 730 mmHg 56%
    20:00 +16°C° 0 mm 2 m/s 730 mmHg 59%
    21:00 +14°C° 0 mm 2 m/s 730 mmHg 62%
    22:00 +14°C° 0 mm 2 m/s 730 mmHg 64%
    23:00 +13°C° 0 mm 1 m/s 730 mmHg 66%

    Mâine, 27 Aprilie, Sâmbătă

    Timp Temperatura Precipitaţii Vânt Presiune Umiditate
    00:00 +13°C° 0 mm 1 m/s 729 mmHg 68%
    01:00 +12°C° 0 mm 1 m/s 729 mmHg 69%
    02:00 +12°C° 0 mm 1 m/s 729 mmHg 69%
    03:00 +10°C° 0 mm 0 m/s 729 mmHg 70%
    04:00 +10°C° 0 mm 0 m/s 729 mmHg 70%
    05:00 +11°C° 0 mm 0 m/s 729 mmHg 70%
    06:00 +11°C° 0 mm 0 m/s 729 mmHg 70%
    07:00 +14°C° 0 mm 1 m/s 729 mmHg 64%
    08:00 +16°C° 0 mm 1 m/s 729 mmHg 57%
    09:00 +18°C° 0 mm 2 m/s 729 mmHg 51%
    10:00 +19°C° 0 mm 3 m/s 729 mmHg 47%
    11:00 +21°C° 0 mm 3 m/s 728 mmHg 44%
    12:00 +22°C° 0 mm 4 m/s 728 mmHg 40%
    13:00 +22°C° 0 mm 4 m/s 728 mmHg 40%
    14:00 +22°C° 0 mm 4 m/s 727 mmHg 39%
    15:00 +22°C° 0 mm 4 m/s 727 mmHg 39%
    16:00 +21°C° 0 mm 4 m/s 727 mmHg 44%
    17:00 +20°C° 0 mm 3 m/s 726 mmHg 48%
    18:00 +20°C° 0 mm 2 m/s 726 mmHg 52%
    19:00 +18°C° 0 mm 2 m/s 727 mmHg 53%
    20:00 +18°C° 0 mm 1 m/s 727 mmHg 54%
    21:00 +15°C° 0 mm 0 m/s 727 mmHg 55%
    22:00 +14°C° 0 mm 0 m/s 727 mmHg 57%
    23:00 +15°C° 0 mm 1 m/s 726 mmHg 60%

    Poimâine, 28 Aprilie, Duminică

    Timp Temperatura Precipitaţii Vânt Presiune Umiditate
    00:00 +14°C° 0 mm 1 m/s 726 mmHg 62%
    01:00 +14°C° 0 mm 1 m/s 726 mmHg 64%
    02:00 +13°C° 0 mm 1 m/s 726 mmHg 66%
    03:00 +13°C° 0 mm 1 m/s 725 mmHg 68%
    04:00 +13°C° 0 mm 1 m/s 725 mmHg 70%
    05:00 +12°C° 0 mm 1 m/s 725 mmHg 72%
    06:00 +12°C° 0 mm 2 m/s 725 mmHg 74%
    07:00 +14°C° 0 mm 2 m/s 725 mmHg 67%
    08:00 +17°C° 0 mm 2 m/s 726 mmHg 60%
    09:00 +19°C° 0 mm 2 m/s 726 mmHg 53%
    10:00 +20°C° 0 mm 2 m/s 725 mmHg 49%
    11:00 +21°C° 0 mm 2 m/s 725 mmHg 45%
    12:00 +23°C° 0 mm 2 m/s 725 mmHg 40%
    13:00 +23°C° 0 mm 2 m/s 725 mmHg 38%
    14:00 +24°C° 0 mm 2 m/s 725 mmHg 37%
    15:00 +24°C° 0 mm 2 m/s 724 mmHg 35%
    16:00 +24°C° 0 mm 1 m/s 724 mmHg 39%
    17:00 +23°C° 0 mm 1 m/s 724 mmHg 44%
    18:00 +22°C° 0 mm 1 m/s 724 mmHg 48%
    19:00 +21°C° 0 mm 1 m/s 724 mmHg 51%
    20:00 +19°C° 0 mm 1 m/s 724 mmHg 54%
    21:00 +18°C° 0 mm 1 m/s 725 mmHg 56%
    22:00 +16°C° 0 mm 1 m/s 724 mmHg 59%
    23:00 +16°C° 0 mm 1 m/s 724 mmHg 61%

    29 Aprilie, Luni

    Timp Temperatura Precipitaţii Vânt Presiune Umiditate
    00:00 +16°C° 0 mm 2 m/s 724 mmHg 63%
    01:00 +15°C° 0 mm 2 m/s 724 mmHg 66%
    02:00 +14°C° 0 mm 2 m/s 724 mmHg 69%
    03:00 +13°C° 0 mm 2 m/s 724 mmHg 72%
    04:00 +13°C° 0 mm 2 m/s 724 mmHg 73%
    05:00 +13°C° 0 mm 2 m/s 724 mmHg 73%
    06:00 +13°C° 0 mm 2 m/s 724 mmHg 74%
    07:00 +15°C° 0 mm 2 m/s 724 mmHg 67%
    08:00 +19°C° 0 mm 1 m/s 725 mmHg 61%
    09:00 +21°C° 0 mm 1 m/s 725 mmHg 55%
    10:00 +22°C° 0 mm 1 m/s 724 mmHg 49%
    11:00 +23°C° 0 mm 1 m/s 724 mmHg 44%
    12:00 +24°C° 0 mm 1 m/s 724 mmHg 39%
    13:00 +25°C° 0 mm 1 m/s 724 mmHg 38%
    14:00 +25°C° 0 mm 2 m/s 724 mmHg 38%
    15:00 +25°C° 0 mm 2 m/s 723 mmHg 37%
    16:00 +24°C° 0 mm 2 m/s 723 mmHg 44%
    17:00 +23°C° 0 mm 2 m/s 723 mmHg 50%
    18:00 +21°C° 0 mm 2 m/s 723 mmHg 57%
    19:00 +19°C° 0.6 mm 2 m/s 724 mmHg 62%
    20:00 +19°C° 0.6 mm 1 m/s 724 mmHg 67%
    21:00 +18°C° 0.6 mm 1 m/s 724 mmHg 71%
    22:00 +16°C° 0.1 mm 1 m/s 724 mmHg 74%
    23:00 +15°C° 0.1 mm 1 m/s 724 mmHg 77%

    30 Aprilie, Marţi

    Timp Temperatura Precipitaţii Vânt Presiune Umiditate
    00:00 +14°C° 0.1 mm 1 m/s 724 mmHg 80%
    01:00 +14°C° 0 mm 1 m/s 724 mmHg 83%
    02:00 +13°C° 0 mm 2 m/s 724 mmHg 86%
    03:00 +13°C° 0 mm 2 m/s 724 mmHg 89%
    04:00 +13°C° 0.6 mm 2 m/s 724 mmHg 90%
    05:00 +13°C° 0.6 mm 2 m/s 724 mmHg 92%
    06:00 +12°C° 0.6 mm 3 m/s 724 mmHg 93%
    07:00 +12°C° 0.3 mm 3 m/s 724 mmHg 90%
    08:00 +13°C° 0.3 mm 3 m/s 725 mmHg 87%
    09:00 +13°C° 0.3 mm 3 m/s 725 mmHg 84%
    10:00 +14°C° 0 mm 3 m/s 725 mmHg 83%
    11:00 +14°C° 0 mm 4 m/s 725 mmHg 82%
    12:00 +15°C° 0 mm 4 m/s 724 mmHg 80%
    13:00 +17°C° 0 mm 4 m/s 724 mmHg 77%
    14:00 +17°C° 0 mm 4 m/s 724 mmHg 74%
    15:00 +18°C° 0 mm 4 m/s 724 mmHg 71%
    16:00 +17°C° 0 mm 4 m/s 724 mmHg 74%
    17:00 +17°C° 0 mm 4 m/s 724 mmHg 77%
    18:00 +15°C° 0 mm 4 m/s 724 mmHg 79%
    19:00 +14°C° 0 mm 4 m/s 724 mmHg 84%
    20:00 +13°C° 0 mm 3 m/s 724 mmHg 89%
    21:00 +12°C° 0 mm 3 m/s 724 mmHg 93%
    22:00 +11°C° 0 mm 3 m/s 724 mmHg 94%
    23:00 +12°C° 0 mm 2 m/s 724 mmHg 95%

    1 Mai, Miercuri

    Timp Temperatura Precipitaţii Vânt Presiune Umiditate
    00:00 +10°C° 0 mm 2 m/s 723 mmHg 95%
    01:00 +10°C° 0 mm 2 m/s 723 mmHg 94%
    02:00 +11°C° 0 mm 1 m/s 723 mmHg 94%
    03:00 +11°C° 0 mm 1 m/s 723 mmHg 93%
    04:00 +11°C° 0 mm 1 m/s 723 mmHg 92%
    05:00 +11°C° 0 mm 1 m/s 723 mmHg 91%
    06:00 +11°C° 0 mm 1 m/s 722 mmHg 90%
    07:00 +13°C° 0 mm 1 m/s 722 mmHg 84%
    08:00 +15°C° 0 mm 1 m/s 722 mmHg 77%
    09:00 +17°C° 0 mm 2 m/s 722 mmHg 70%
    10:00 +19°C° 0 mm 3 m/s 722 mmHg 66%
    11:00 +20°C° 0 mm 3 m/s 722 mmHg 62%
    12:00 +22°C° 0 mm 4 m/s 722 mmHg 57%
    13:00 +22°C° 0 mm 4 m/s 722 mmHg 58%
    14:00 +22°C° 0 mm 5 m/s 722 mmHg 58%
    15:00 +22°C° 0 mm 5 m/s 721 mmHg 59%
    16:00 +21°C° 0 mm 5 m/s 721 mmHg 63%
    17:00 +20°C° 0 mm 4 m/s 721 mmHg 67%
    18:00 +19°C° 0 mm 4 m/s 721 mmHg 72%
    19:00 +17°C° 0.1 mm 4 m/s 721 mmHg 76%
    20:00 +15°C° 0.1 mm 4 m/s 721 mmHg 80%
    21:00 +14°C° 0.1 mm 3 m/s 721 mmHg 84%
    22:00 +13°C° 0 mm 3 m/s 720 mmHg 85%
    23:00 +13°C° 0 mm 3 m/s 720 mmHg 85%
    Arată mai mult